When you browse on this site, cookies collect data to enhance your experience and personalize the content and advertising you see.
Visit our Privacy Policy to learn more. By continuing to use the site, you agree to this use of cookies and data.

Meteo pe oră la Środa Wielkopolska

Astăzi, 4 August, Marţi

Timp Temperatura Precipitaţii Vânt Presiune Umiditate
00:00 +17°C° 0.1 mm 4 m/s 748 mmHg 94%
01:00 +15°C° 0 mm 4 m/s 748 mmHg 95%
02:00 +15°C° 0 mm 4 m/s 748 mmHg 94%
03:00 +15°C° 0 mm 4 m/s 748 mmHg 94%
04:00 +15°C° 0 mm 4 m/s 748 mmHg 93%
05:00 +15°C° 0.3 mm 4 m/s 748 mmHg 92%
06:00 +15°C° 0.3 mm 5 m/s 748 mmHg 90%
07:00 +15°C° 0 mm 5 m/s 749 mmHg 89%
08:00 +15°C° 1.1 mm 5 m/s 749 mmHg 88%
09:00 +15°C° 1.1 mm 5 m/s 749 mmHg 87%
10:00 +15°C° 1.1 mm 5 m/s 749 mmHg 86%
11:00 +17°C° 0.4 mm 4 m/s 749 mmHg 85%
12:00 +17°C° 0.4 mm 3 m/s 749 mmHg 84%
13:00 +17°C° 0 mm 3 m/s 750 mmHg 82%
14:00 +17°C° 0 mm 2 m/s 751 mmHg 81%
15:00 +18°C° 0 mm 2 m/s 751 mmHg 80%
16:00 +19°C° 0 mm 1 m/s 751 mmHg 78%
17:00 +18°C° 0 mm 2 m/s 752 mmHg 77%
18:00 +17°C° 0 mm 2 m/s 752 mmHg 76%
19:00 +17°C° 0 mm 2 m/s 753 mmHg 75%
20:00 +16°C° 0 mm 2 m/s 753 mmHg 75%
21:00 +16°C° 0 mm 2 m/s 753 mmHg 75%
22:00 +15°C° 0 mm 2 m/s 754 mmHg 75%
23:00 +14°C° 0 mm 2 m/s 754 mmHg 76%

Mâine, 5 August, Miercuri

Timp Temperatura Precipitaţii Vânt Presiune Umiditate
00:00 +14°C° 0 mm 2 m/s 755 mmHg 77%
01:00 +13°C° 0 mm 2 m/s 755 mmHg 79%
02:00 +12°C° 0 mm 1 m/s 755 mmHg 80%
03:00 +12°C° 0 mm 1 m/s 755 mmHg 81%
04:00 +12°C° 0 mm 1 m/s 756 mmHg 81%
05:00 +13°C° 0 mm 1 m/s 756 mmHg 77%
06:00 +14°C° 0 mm 1 m/s 756 mmHg 73%
07:00 +16°C° 0 mm 1 m/s 756 mmHg 68%
08:00 +18°C° 0 mm 1 m/s 757 mmHg 62%
09:00 +20°C° 0 mm 1 m/s 757 mmHg 55%
10:00 +22°C° 0 mm 1 m/s 757 mmHg 49%
11:00 +23°C° 0 mm 1 m/s 757 mmHg 48%
12:00 +23°C° 0 mm 1 m/s 757 mmHg 47%
13:00 +24°C° 0 mm 1 m/s 757 mmHg 46%
14:00 +24°C° 0 mm 1 m/s 757 mmHg 46%
15:00 +24°C° 0 mm 1 m/s 757 mmHg 46%
16:00 +25°C° 0 mm 1 m/s 757 mmHg 46%
17:00 +23°C° 0 mm 1 m/s 757 mmHg 51%
18:00 +22°C° 0 mm 1 m/s 757 mmHg 56%
19:00 +21°C° 0 mm 1 m/s 757 mmHg 61%
20:00 +20°C° 0 mm 1 m/s 757 mmHg 63%
21:00 +18°C° 0 mm 2 m/s 758 mmHg 64%
22:00 +17°C° 0 mm 2 m/s 758 mmHg 66%
23:00 +17°C° 0 mm 2 m/s 758 mmHg 67%

Poimâine, 6 August, Joi

Timp Temperatura Precipitaţii Vânt Presiune Umiditate
00:00 +17°C° 0 mm 2 m/s 758 mmHg 68%
01:00 +16°C° 0 mm 2 m/s 758 mmHg 68%
02:00 +16°C° 0 mm 2 m/s 758 mmHg 70%
03:00 +15°C° 0 mm 2 m/s 758 mmHg 71%
04:00 +15°C° 0 mm 2 m/s 759 mmHg 72%
05:00 +16°C° 0 mm 2 m/s 759 mmHg 71%
06:00 +17°C° 0 mm 3 m/s 759 mmHg 70%
07:00 +18°C° 0 mm 3 m/s 759 mmHg 69%
08:00 +20°C° 0 mm 3 m/s 759 mmHg 65%
09:00 +22°C° 0 mm 3 m/s 760 mmHg 61%
10:00 +23°C° 0 mm 4 m/s 760 mmHg 57%
11:00 +25°C° 0 mm 4 m/s 759 mmHg 55%
12:00 +26°C° 0 mm 4 m/s 759 mmHg 54%
13:00 +27°C° 0 mm 4 m/s 759 mmHg 52%
14:00 +27°C° 0 mm 4 m/s 759 mmHg 53%
15:00 +27°C° 0 mm 4 m/s 759 mmHg 53%
16:00 +27°C° 0 mm 4 m/s 759 mmHg 54%
17:00 +26°C° 0 mm 4 m/s 759 mmHg 59%
18:00 +24°C° 0 mm 3 m/s 759 mmHg 64%
19:00 +22°C° 0 mm 3 m/s 759 mmHg 70%
20:00 +21°C° 0 mm 3 m/s 759 mmHg 71%
21:00 +21°C° 0 mm 3 m/s 759 mmHg 72%
22:00 +20°C° 0 mm 3 m/s 760 mmHg 74%
23:00 +19°C° 0 mm 3 m/s 760 mmHg 74%

7 August, Vineri

Timp Temperatura Precipitaţii Vânt Presiune Umiditate
00:00 +19°C° 0 mm 3 m/s 760 mmHg 75%
01:00 +19°C° 0 mm 3 m/s 760 mmHg 76%
02:00 +18°C° 0 mm 3 m/s 760 mmHg 78%
03:00 +18°C° 0 mm 3 m/s 760 mmHg 80%
04:00 +18°C° 0 mm 3 m/s 759 mmHg 82%
05:00 +19°C° 0 mm 3 m/s 760 mmHg 81%
06:00 +20°C° 0 mm 4 m/s 760 mmHg 80%
07:00 +21°C° 0 mm 4 m/s 760 mmHg 80%
08:00 +23°C° 0 mm 4 m/s 760 mmHg 75%
09:00 +26°C° 0 mm 4 m/s 760 mmHg 71%
10:00 +27°C° 0 mm 4 m/s 760 mmHg 66%
11:00 +28°C° 0.4 mm 4 m/s 760 mmHg 63%
12:00 +29°C° 0.4 mm 4 m/s 759 mmHg 60%
13:00 +30°C° 0.4 mm 4 m/s 759 mmHg 57%
14:00 +30°C° 0.7 mm 4 m/s 759 mmHg 57%
15:00 +30°C° 0.7 mm 4 m/s 759 mmHg 58%
16:00 +29°C° 0.7 mm 4 m/s 758 mmHg 59%
17:00 +28°C° 0.2 mm 4 m/s 758 mmHg 64%
18:00 +27°C° 0.2 mm 3 m/s 758 mmHg 69%
19:00 +26°C° 0.2 mm 3 m/s 758 mmHg 75%
20:00 +25°C° 0 mm 3 m/s 758 mmHg 76%
21:00 +24°C° 0 mm 3 m/s 759 mmHg 77%
22:00 +22°C° 0 mm 3 m/s 759 mmHg 78%
23:00 +21°C° 0 mm 3 m/s 759 mmHg 80%

8 August, Sâmbătă

Timp Temperatura Precipitaţii Vânt Presiune Umiditate
00:00 +21°C° 0 mm 3 m/s 759 mmHg 82%
01:00 +20°C° 0 mm 3 m/s 758 mmHg 83%
02:00 +20°C° 0 mm 3 m/s 758 mmHg 86%
03:00 +20°C° 0 mm 3 m/s 758 mmHg 88%
04:00 +19°C° 0 mm 3 m/s 758 mmHg 90%
05:00 +20°C° 0 mm 3 m/s 758 mmHg 86%
06:00 +21°C° 0 mm 3 m/s 758 mmHg 81%
07:00 +22°C° 0 mm 3 m/s 758 mmHg 77%
08:00 +25°C° 0 mm 4 m/s 758 mmHg 71%
09:00 +26°C° 0 mm 4 m/s 758 mmHg 66%
10:00 +28°C° 0 mm 4 m/s 758 mmHg 61%
11:00 +28°C° 0 mm 4 m/s 757 mmHg 57%
12:00 +29°C° 0 mm 4 m/s 757 mmHg 53%
13:00 +30°C° 0 mm 3 m/s 756 mmHg 49%
14:00 +30°C° 0 mm 3 m/s 756 mmHg 49%
15:00 +30°C° 0 mm 3 m/s 756 mmHg 49%
16:00 +30°C° 0 mm 3 m/s 755 mmHg 49%
17:00 +28°C° 0 mm 3 m/s 755 mmHg 54%
18:00 +27°C° 0 mm 2 m/s 755 mmHg 59%
19:00 +26°C° 0 mm 2 m/s 755 mmHg 64%
20:00 +25°C° 0 mm 2 m/s 755 mmHg 66%
21:00 +24°C° 0 mm 2 m/s 755 mmHg 68%
22:00 +23°C° 0 mm 2 m/s 756 mmHg 70%
23:00 +23°C° 0 mm 2 m/s 755 mmHg 73%

9 August, Duminică

Timp Temperatura Precipitaţii Vânt Presiune Umiditate
00:00 +21°C° 0 mm 2 m/s 755 mmHg 76%
01:00 +20°C° 0 mm 3 m/s 755 mmHg 79%
02:00 +20°C° 0 mm 2 m/s 755 mmHg 81%
03:00 +20°C° 0 mm 2 m/s 755 mmHg 84%
04:00 +19°C° 0 mm 2 m/s 755 mmHg 86%
05:00 +20°C° 0 mm 2 m/s 755 mmHg 84%
06:00 +21°C° 0 mm 2 m/s 755 mmHg 81%
07:00 +23°C° 0 mm 2 m/s 755 mmHg 79%
08:00 +24°C° 0 mm 2 m/s 755 mmHg 73%
09:00 +26°C° 0 mm 2 m/s 755 mmHg 67%
10:00 +27°C° 0 mm 2 m/s 755 mmHg 61%
11:00 +28°C° 0.1 mm 2 m/s 754 mmHg 58%
12:00 +28°C° 0.1 mm 2 m/s 754 mmHg 54%
13:00 +29°C° 0.1 mm 3 m/s 754 mmHg 51%
14:00 +29°C° 0 mm 2 m/s 754 mmHg 50%
15:00 +29°C° 0 mm 2 m/s 753 mmHg 50%
16:00 +29°C° 0 mm 2 m/s 753 mmHg 50%
17:00 +28°C° 0.1 mm 2 m/s 753 mmHg 55%
18:00 +27°C° 0.1 mm 2 m/s 753 mmHg 60%
19:00 +25°C° 0.1 mm 2 m/s 753 mmHg 65%
20:00 +24°C° 0.2 mm 2 m/s 753 mmHg 68%
21:00 +23°C° 0.2 mm 2 m/s 753 mmHg 72%
22:00 +21°C° 0.2 mm 2 m/s 754 mmHg 75%
23:00 +21°C° 0.1 mm 2 m/s 754 mmHg 78%
Arată mai mult